PWSweather.com
Personal Weather Stations
Station Observations
SHAHALMS1
Eftra, Falkenberg, HA

EftraFalkenberg, HA

Lat: 56.85, Lon: 12.65

Elevation: 140

Station Type:

http://hem.passagen.se/risarp101

High Low Average
Temperature 68.9°F20.5°C 49.8°F9.9°C 61.7°F16.5°C
Dew Point 58.5°F14.7°C 44.9°F7.2°C 52.9°F11.6°C
Winds 9.7 mph 15.6 kmh Calm Calm 4.0 mph S6.4 kmh S
Wind Gusts 23.6 mph38.0 kmh -- 10.0 mph16.1 kmh
Humidity 93% 56% 74%
Pressure 30.33 in1027.1 mb 30.21 in1023.0 mb -
Precipitation 0.05 in1.3 mm - -
Hour Temp Dew Point Humidity Winds Wind Gusts Pressure Precip Precip Rate Daily Precip Total
12:00 AM 51.4°F10.8°C 45.5°F7.5°C 80% Calm Calm -- 30.33 in1027.1 mb 0.00 in0.0 mm 0.00 in0.0 mm 0.00 in0.0 mm
12:10 AM 50.9°F10.5°C 44.9°F7.2°C 80% Calm Calm -- 30.33 in1027.1 mb 0.00 in0.0 mm 0.00 in0.0 mm 0.00 in0.0 mm
12:20 AM 50.9°F10.5°C 45.3°F7.4°C 81% Calm Calm 2.1 mph3.4 kmh 30.33 in1027.1 mb 0.00 in0.0 mm 0.00 in0.0 mm 0.00 in0.0 mm
12:30 AM 51.1°F10.6°C 45.8°F7.7°C 82% 0.2 mph SE0.3 kmh SE 2.5 mph4.0 kmh 30.33 in1027.1 mb 0.00 in0.0 mm 0.00 in0.0 mm 0.00 in0.0 mm
12:40 AM 51.1°F10.6°C 46.1°F7.8°C 83% Calm Calm -- 30.33 in1027.1 mb 0.00 in0.0 mm 0.00 in0.0 mm 0.00 in0.0 mm
12:50 AM 51.3°F10.7°C 46.3°F7.9°C 83% 0.3 mph S0.5 kmh S 3.9 mph6.3 kmh 30.33 in1027.1 mb 0.00 in0.0 mm 0.00 in0.0 mm 0.00 in0.0 mm
01:00 AM 51.3°F10.7°C 46.3°F7.9°C 83% Calm Calm -- 30.33 in1027.1 mb 0.00 in0.0 mm 0.00 in0.0 mm 0.00 in0.0 mm
01:10 AM 51.4°F10.8°C 46.8°F8.2°C 84% 0.2 mph SE0.3 kmh SE 3.9 mph6.3 kmh 30.33 in1027.1 mb 0.00 in0.0 mm 0.00 in0.0 mm 0.00 in0.0 mm
01:20 AM 51.8°F11.0°C 47.4°F8.6°C 85% 1.6 mph S2.6 kmh S 5.4 mph8.7 kmh 30.33 in1027.1 mb 0.00 in0.0 mm 0.00 in0.0 mm 0.00 in0.0 mm
01:30 AM 51.8°F11.0°C 47.7°F8.7°C 86% 0.2 mph SSE0.3 kmh SSE 3.6 mph5.8 kmh 30.33 in1027.1 mb 0.00 in0.0 mm 0.00 in0.0 mm 0.00 in0.0 mm
01:40 AM 51.3°F10.7°C 46.9°F8.3°C 85% 0.4 mph SE0.6 kmh SE 6.1 mph9.8 kmh 30.30 in1026.1 mb 0.00 in0.0 mm 0.00 in0.0 mm 0.00 in0.0 mm
01:50 AM 51.1°F10.6°C 46.7°F8.2°C 85% 0.8 mph SE1.3 kmh SE 5.4 mph8.7 kmh 30.30 in1026.1 mb 0.00 in0.0 mm 0.00 in0.0 mm 0.00 in0.0 mm
02:00 AM 51.3°F10.7°C 47.2°F8.4°C 86% 1.1 mph SE1.8 kmh SE 6.8 mph10.9 kmh 30.33 in1027.1 mb 0.00 in0.0 mm 0.00 in0.0 mm 0.00 in0.0 mm
02:10 AM 50.9°F10.5°C 46.6°F8.1°C 85% 1.3 mph SE2.1 kmh SE 7.9 mph12.7 kmh 30.30 in1026.1 mb 0.00 in0.0 mm 0.00 in0.0 mm 0.00 in0.0 mm
02:20 AM 51.3°F10.7°C 47.2°F8.4°C 86% 0.7 mph SE1.1 kmh SE 6.4 mph10.3 kmh 30.30 in1026.1 mb 0.00 in0.0 mm 0.00 in0.0 mm 0.00 in0.0 mm
02:30 AM 51.3°F10.7°C 47.5°F8.6°C 87% 0.8 mph SE1.3 kmh SE 6.1 mph9.8 kmh 30.30 in1026.1 mb 0.00 in0.0 mm 0.00 in0.0 mm 0.00 in0.0 mm
02:40 AM 51.4°F10.8°C 47.7°F8.7°C 87% 0.8 mph SE1.3 kmh SE 3.9 mph6.3 kmh 30.30 in1026.1 mb 0.00 in0.0 mm 0.00 in0.0 mm 0.00 in0.0 mm
02:50 AM 51.1°F10.6°C 47.3°F8.5°C 87% 0.7 mph SSE1.1 kmh SSE 5.0 mph8.0 kmh 30.30 in1026.1 mb 0.00 in0.0 mm 0.00 in0.0 mm 0.00 in0.0 mm
03:00 AM 52.2°F11.2°C 49.0°F9.4°C 89% 0.8 mph S1.3 kmh S 5.7 mph9.2 kmh 30.30 in1026.1 mb 0.00 in0.0 mm 0.00 in0.0 mm 0.00 in0.0 mm
03:10 AM 51.8°F11.0°C 48.4°F9.1°C 88% 0.4 mph S0.6 kmh S 4.7 mph7.6 kmh 30.30 in1026.1 mb 0.00 in0.0 mm 0.00 in0.0 mm 0.00 in0.0 mm
03:20 AM 52.0°F11.1°C 48.8°F9.3°C 89% 1.9 mph S3.1 kmh S 6.8 mph10.9 kmh 30.30 in1026.1 mb 0.00 in0.0 mm 0.00 in0.0 mm 0.00 in0.0 mm
03:30 AM 52.2°F11.2°C 49.0°F9.4°C 89% 1.8 mph S2.9 kmh S 8.6 mph13.8 kmh 30.30 in1026.1 mb 0.00 in0.0 mm 0.00 in0.0 mm 0.00 in0.0 mm
03:40 AM 51.3°F10.7°C 47.5°F8.6°C 87% Calm Calm -- 30.30 in1026.1 mb 0.00 in0.0 mm 0.00 in0.0 mm 0.00 in0.0 mm
03:50 AM 50.9°F10.5°C 47.2°F8.4°C 87% Calm Calm -- 30.30 in1026.1 mb 0.00 in0.0 mm 0.00 in0.0 mm 0.00 in0.0 mm
04:00 AM 50.5°F10.3°C 46.8°F8.2°C 87% 0.2 mph S0.3 kmh S 2.5 mph4.0 kmh 30.30 in1026.1 mb 0.00 in0.0 mm 0.00 in0.0 mm 0.00 in0.0 mm
04:10 AM 50.2°F10.1°C 46.5°F8.1°C 87% 0.1 mph SSE0.2 kmh SSE 1.4 mph2.3 kmh 30.30 in1026.1 mb 0.00 in0.0 mm 0.00 in0.0 mm 0.00 in0.0 mm
04:20 AM 49.8°F9.9°C 46.1°F7.8°C 87% Calm Calm -- 30.30 in1026.1 mb 0.00 in0.0 mm 0.00 in0.0 mm 0.00 in0.0 mm
04:30 AM 50.4°F10.2°C 46.9°F8.3°C 88% 0.2 mph S0.3 kmh S 3.2 mph5.1 kmh 30.30 in1026.1 mb 0.00 in0.0 mm 0.00 in0.0 mm 0.00 in0.0 mm
04:40 AM 50.4°F10.2°C 46.9°F8.3°C 88% Calm Calm -- 30.30 in1026.1 mb 0.00 in0.0 mm 0.00 in0.0 mm 0.00 in0.0 mm
04:50 AM 51.3°F10.7°C 48.1°F8.9°C 89% 0.3 mph SW0.5 kmh SW 3.2 mph5.1 kmh 30.30 in1026.1 mb 0.00 in0.0 mm 0.00 in0.0 mm 0.00 in0.0 mm
05:00 AM 51.4°F10.8°C 48.3°F9.1°C 89% 0.1 mph W0.2 kmh W 1.8 mph2.9 kmh 30.30 in1026.1 mb 0.00 in0.0 mm 0.00 in0.0 mm 0.00 in0.0 mm
05:10 AM 52.2°F11.2°C 49.3°F9.6°C 90% 0.4 mph S0.6 kmh S 4.7 mph7.6 kmh 30.30 in1026.1 mb 0.00 in0.0 mm 0.00 in0.0 mm 0.00 in0.0 mm
05:20 AM 52.5°F11.4°C 49.7°F9.8°C 90% 0.4 mph SSW0.6 kmh SSW 3.6 mph5.8 kmh 30.30 in1026.1 mb 0.00 in0.0 mm 0.00 in0.0 mm 0.00 in0.0 mm
05:30 AM 53.1°F11.7°C 50.2°F10.1°C 90% 0.4 mph S0.6 kmh S 6.8 mph10.9 kmh 30.30 in1026.1 mb 0.00 in0.0 mm 0.00 in0.0 mm 0.00 in0.0 mm
05:40 AM 54.5°F12.5°C 52.2°F11.2°C 92% 1.2 mph S1.9 kmh S 6.1 mph9.8 kmh 30.27 in1025.1 mb 0.00 in0.0 mm 0.00 in0.0 mm 0.00 in0.0 mm
05:50 AM 55.4°F13.0°C 53.4°F11.9°C 93% 1.9 mph S3.1 kmh S 6.8 mph10.9 kmh 30.27 in1025.1 mb 0.00 in0.0 mm 0.00 in0.0 mm 0.00 in0.0 mm
06:00 AM 56.7°F13.7°C 54.7°F12.6°C 93% 1.3 mph S2.1 kmh S 7.9 mph12.7 kmh 30.27 in1025.1 mb 0.00 in0.0 mm 0.00 in0.0 mm 0.00 in0.0 mm
06:10 AM 56.8°F13.8°C 54.5°F12.5°C 92% 1.7 mph S2.7 kmh S 6.4 mph10.3 kmh 30.27 in1025.1 mb 0.00 in0.0 mm 0.00 in0.0 mm 0.00 in0.0 mm
06:20 AM 57.2°F14.0°C 54.6°F12.6°C 91% 1.1 mph S1.8 kmh S 5.7 mph9.2 kmh 30.27 in1025.1 mb 0.00 in0.0 mm 0.00 in0.0 mm 0.00 in0.0 mm
06:30 AM 57.9°F14.4°C 55.3°F12.9°C 91% 1.8 mph S2.9 kmh S 8.9 mph14.3 kmh 30.27 in1025.1 mb 0.00 in0.0 mm 0.00 in0.0 mm 0.00 in0.0 mm
06:40 AM 58.6°F14.8°C 56.0°F13.3°C 91% 1.4 mph S2.3 kmh S 8.9 mph14.3 kmh 30.30 in1026.1 mb 0.00 in0.0 mm 0.00 in0.0 mm 0.00 in0.0 mm
06:50 AM 59.5°F15.3°C 56.9°F13.8°C 91% 1.2 mph S1.9 kmh S 9.7 mph15.6 kmh 30.30 in1026.1 mb 0.00 in0.0 mm 0.00 in0.0 mm 0.00 in0.0 mm
07:00 AM 61.2°F16.2°C 58.5°F14.7°C 91% 4.6 mph S7.4 kmh S 11.1 mph17.9 kmh 30.27 in1025.1 mb 0.00 in0.0 mm 0.00 in0.0 mm 0.00 in0.0 mm
07:10 AM 61.2°F16.2°C 58.2°F14.6°C 90% 3.1 mph S5.0 kmh S 9.7 mph15.6 kmh 30.27 in1025.1 mb 0.00 in0.0 mm 0.00 in0.0 mm 0.00 in0.0 mm
07:20 AM 61.7°F16.5°C 58.4°F14.7°C 89% 6.6 mph SSE10.6 kmh SSE 12.9 mph20.8 kmh 30.27 in1025.1 mb 0.00 in0.0 mm 0.00 in0.0 mm 0.00 in0.0 mm
07:30 AM 61.5°F16.4°C 57.6°F14.2°C 87% 4.4 mph S7.1 kmh S 14.0 mph22.5 kmh 30.30 in1026.1 mb 0.00 in0.0 mm 0.00 in0.0 mm 0.00 in0.0 mm
07:40 AM 62.6°F17.0°C 58.4°F14.7°C 86% 6.4 mph SSW10.3 kmh SSW 15.4 mph24.8 kmh 30.30 in1026.1 mb 0.00 in0.0 mm 0.00 in0.0 mm 0.00 in0.0 mm
07:50 AM 63.1°F17.3°C 58.2°F14.6°C 84% 7.5 mph S12.1 kmh S 16.1 mph25.9 kmh 30.30 in1026.1 mb 0.00 in0.0 mm 0.00 in0.0 mm 0.00 in0.0 mm
08:00 AM 63.3°F17.4°C 57.4°F14.1°C 81% 6.4 mph S10.3 kmh S 13.6 mph21.9 kmh 30.30 in1026.1 mb 0.00 in0.0 mm 0.00 in0.0 mm 0.00 in0.0 mm
08:10 AM 63.7°F17.6°C 56.7°F13.7°C 78% 6.0 mph S9.7 kmh S 11.5 mph18.5 kmh 30.30 in1026.1 mb 0.00 in0.0 mm 0.00 in0.0 mm 0.00 in0.0 mm
08:20 AM 63.7°F17.6°C 56.7°F13.7°C 78% 4.8 mph S7.7 kmh S 10.4 mph16.7 kmh 30.30 in1026.1 mb 0.00 in0.0 mm 0.00 in0.0 mm 0.00 in0.0 mm
08:30 AM 63.7°F17.6°C 56.3°F13.5°C 77% 6.6 mph S10.6 kmh S 16.8 mph27.0 kmh 30.30 in1026.1 mb 0.00 in0.0 mm 0.00 in0.0 mm 0.00 in0.0 mm
08:40 AM 63.7°F17.6°C 56.3°F13.5°C 77% 6.1 mph S9.8 kmh S 16.5 mph26.6 kmh 30.30 in1026.1 mb 0.00 in0.0 mm 0.00 in0.0 mm 0.00 in0.0 mm
08:50 AM 63.9°F17.7°C 56.5°F13.6°C 77% 6.9 mph S11.1 kmh S 17.2 mph27.7 kmh 30.30 in1026.1 mb 0.00 in0.0 mm 0.00 in0.0 mm 0.00 in0.0 mm
09:00 AM 64.0°F17.8°C 56.7°F13.7°C 77% 6.2 mph S10.0 kmh S 14.0 mph22.5 kmh 30.30 in1026.1 mb 0.00 in0.0 mm 0.00 in0.0 mm 0.00 in0.0 mm
09:10 AM 64.4°F18.0°C 56.7°F13.7°C 76% 7.6 mph S12.2 kmh S 19.3 mph31.1 kmh 30.30 in1026.1 mb 0.00 in0.0 mm 0.00 in0.0 mm 0.00 in0.0 mm
09:20 AM 64.9°F18.3°C 56.8°F13.8°C 75% 7.0 mph S11.3 kmh S 17.2 mph27.7 kmh 30.30 in1026.1 mb 0.00 in0.0 mm 0.00 in0.0 mm 0.00 in0.0 mm
09:30 AM 65.1°F18.4°C 56.2°F13.4°C 73% 8.4 mph S13.5 kmh S 20.8 mph33.5 kmh 30.30 in1026.1 mb 0.00 in0.0 mm 0.00 in0.0 mm 0.00 in0.0 mm
09:40 AM 65.1°F18.4°C 55.1°F12.8°C 70% 7.6 mph S12.2 kmh S 23.6 mph38.0 kmh 30.30 in1026.1 mb 0.00 in0.0 mm 0.00 in0.0 mm 0.00 in0.0 mm
09:50 AM 65.3°F18.5°C 55.3°F12.9°C 70% 6.7 mph S10.8 kmh S 19.3 mph31.1 kmh 30.30 in1026.1 mb 0.00 in0.0 mm 0.00 in0.0 mm 0.00 in0.0 mm
10:00 AM 65.7°F18.7°C 55.2°F12.9°C 69% 7.1 mph S11.4 kmh S 17.5 mph28.2 kmh 30.30 in1026.1 mb 0.00 in0.0 mm 0.00 in0.0 mm 0.00 in0.0 mm
10:10 AM 65.8°F18.8°C 55.0°F12.8°C 68% 7.3 mph SSW11.7 kmh SSW 17.5 mph28.2 kmh 30.30 in1026.1 mb 0.00 in0.0 mm 0.00 in0.0 mm 0.00 in0.0 mm
10:20 AM 66.0°F18.9°C 55.2°F12.9°C 68% 6.2 mph S10.0 kmh S 15.4 mph24.8 kmh 30.30 in1026.1 mb 0.00 in0.0 mm 0.00 in0.0 mm 0.00 in0.0 mm
10:30 AM 66.0°F18.9°C 55.2°F12.9°C 68% 8.6 mph S13.8 kmh S 16.1 mph25.9 kmh 30.30 in1026.1 mb 0.00 in0.0 mm 0.00 in0.0 mm 0.00 in0.0 mm
10:40 AM 66.4°F19.1°C 55.1°F12.8°C 67% 7.0 mph S11.3 kmh S 20.8 mph33.5 kmh 30.30 in1026.1 mb 0.00 in0.0 mm 0.00 in0.0 mm 0.00 in0.0 mm
10:50 AM 66.9°F19.4°C 55.6°F13.1°C 67% 6.6 mph S10.6 kmh S 17.5 mph28.2 kmh 30.30 in1026.1 mb 0.00 in0.0 mm 0.00 in0.0 mm 0.00 in0.0 mm
11:00 AM 67.1°F19.5°C 54.9°F12.7°C 65% 6.6 mph S10.6 kmh S 15.7 mph25.3 kmh 30.30 in1026.1 mb 0.00 in0.0 mm 0.00 in0.0 mm 0.00 in0.0 mm
11:10 AM 67.5°F19.7°C 55.7°F13.2°C 66% 6.6 mph S10.6 kmh S 19.7 mph31.7 kmh 30.27 in1025.1 mb 0.00 in0.0 mm 0.00 in0.0 mm 0.00 in0.0 mm
11:20 AM 67.8°F19.9°C 55.6°F13.1°C 65% 5.9 mph S9.5 kmh S 14.0 mph22.5 kmh 30.27 in1025.1 mb 0.00 in0.0 mm 0.00 in0.0 mm 0.00 in0.0 mm
11:30 AM 67.6°F19.8°C 55.0°F12.8°C 64% 6.8 mph SSW10.9 kmh SSW 15.4 mph24.8 kmh 30.30 in1026.1 mb 0.00 in0.0 mm 0.00 in0.0 mm 0.00 in0.0 mm
11:40 AM 67.6°F19.8°C 54.6°F12.6°C 63% 8.6 mph S13.8 kmh S 17.5 mph28.2 kmh 30.30 in1026.1 mb 0.00 in0.0 mm 0.00 in0.0 mm 0.00 in0.0 mm
11:50 AM 67.6°F19.8°C 54.6°F12.6°C 63% 8.1 mph S13.0 kmh S 19.0 mph30.6 kmh 30.30 in1026.1 mb 0.00 in0.0 mm 0.00 in0.0 mm 0.00 in0.0 mm
12:00 PM 67.6°F19.8°C 54.6°F12.6°C 63% 7.3 mph S11.7 kmh S 16.8 mph27.0 kmh 30.27 in1025.1 mb 0.00 in0.0 mm 0.00 in0.0 mm 0.00 in0.0 mm
12:10 PM 67.5°F19.7°C 54.0°F12.2°C 62% 6.4 mph S10.3 kmh S 16.5 mph26.6 kmh 30.30 in1026.1 mb 0.00 in0.0 mm 0.00 in0.0 mm 0.00 in0.0 mm
12:20 PM 67.5°F19.7°C 54.4°F12.4°C 63% 5.1 mph S8.2 kmh S 11.8 mph19.0 kmh 30.30 in1026.1 mb 0.00 in0.0 mm 0.00 in0.0 mm 0.00 in0.0 mm
12:30 PM 67.6°F19.8°C 54.2°F12.3°C 62% 6.6 mph S10.6 kmh S 20.8 mph33.5 kmh 30.30 in1026.1 mb 0.00 in0.0 mm 0.00 in0.0 mm 0.00 in0.0 mm
12:40 PM 68.0°F20.0°C 54.0°F12.2°C 61% 6.9 mph SSW11.1 kmh SSW 15.7 mph25.3 kmh 30.30 in1026.1 mb 0.00 in0.0 mm 0.00 in0.0 mm 0.00 in0.0 mm
12:50 PM 68.0°F20.0°C 53.6°F12.0°C 60% 7.2 mph S11.6 kmh S 13.6 mph21.9 kmh 30.30 in1026.1 mb 0.00 in0.0 mm 0.00 in0.0 mm 0.00 in0.0 mm
01:00 PM 68.0°F20.0°C 53.6°F12.0°C 60% 7.3 mph S11.7 kmh S 20.0 mph32.2 kmh 30.30 in1026.1 mb 0.00 in0.0 mm 0.00 in0.0 mm 0.00 in0.0 mm
01:10 PM 68.0°F20.0°C 53.1°F11.7°C 59% 7.0 mph S11.3 kmh S 15.4 mph24.8 kmh 30.30 in1026.1 mb 0.00 in0.0 mm 0.00 in0.0 mm 0.00 in0.0 mm
01:20 PM 68.0°F20.0°C 53.1°F11.7°C 59% 6.5 mph S10.5 kmh S 14.0 mph22.5 kmh 30.30 in1026.1 mb 0.00 in0.0 mm 0.00 in0.0 mm 0.00 in0.0 mm
01:30 PM 68.2°F20.1°C 53.3°F11.8°C 59% 7.6 mph S12.2 kmh S 14.0 mph22.5 kmh 30.30 in1026.1 mb 0.00 in0.0 mm 0.00 in0.0 mm 0.00 in0.0 mm
01:40 PM 68.2°F20.1°C 53.3°F11.8°C 59% 7.0 mph S11.3 kmh S 15.4 mph24.8 kmh 30.27 in1025.1 mb 0.00 in0.0 mm 0.00 in0.0 mm 0.00 in0.0 mm
01:50 PM 68.5°F20.3°C 53.6°F12.0°C 59% 5.8 mph S9.3 kmh S 12.5 mph20.1 kmh 30.27 in1025.1 mb 0.00 in0.0 mm 0.00 in0.0 mm 0.00 in0.0 mm
02:00 PM 68.9°F20.5°C 53.5°F11.9°C 58% 7.1 mph S11.4 kmh S 20.0 mph32.2 kmh 30.30 in1026.1 mb 0.00 in0.0 mm 0.00 in0.0 mm 0.00 in0.0 mm
02:10 PM 68.7°F20.4°C 53.3°F11.8°C 58% 6.4 mph S10.3 kmh S 16.5 mph26.6 kmh 30.27 in1025.1 mb 0.00 in0.0 mm 0.00 in0.0 mm 0.00 in0.0 mm
02:20 PM 68.7°F20.4°C 53.3°F11.8°C 58% 7.3 mph S11.7 kmh S 16.5 mph26.6 kmh 30.27 in1025.1 mb 0.00 in0.0 mm 0.00 in0.0 mm 0.00 in0.0 mm
02:30 PM 68.4°F20.2°C 52.5°F11.4°C 57% 6.6 mph S10.6 kmh S 12.2 mph19.6 kmh 30.27 in1025.1 mb 0.00 in0.0 mm 0.00 in0.0 mm 0.00 in0.0 mm
02:40 PM 68.2°F20.1°C 52.8°F11.6°C 58% 6.5 mph S10.5 kmh S 16.5 mph26.6 kmh 30.27 in1025.1 mb 0.00 in0.0 mm 0.00 in0.0 mm 0.00 in0.0 mm
02:50 PM 68.0°F20.0°C 52.7°F11.5°C 58% 8.2 mph SSE13.2 kmh SSE 15.4 mph24.8 kmh 30.27 in1025.1 mb 0.00 in0.0 mm 0.00 in0.0 mm 0.00 in0.0 mm
03:00 PM 68.0°F20.0°C 52.7°F11.5°C 58% 8.0 mph SSE12.9 kmh SSE 16.8 mph27.0 kmh 30.27 in1025.1 mb 0.00 in0.0 mm 0.00 in0.0 mm 0.00 in0.0 mm
03:10 PM 68.0°F20.0°C 52.7°F11.5°C 58% 8.4 mph S13.5 kmh S 19.3 mph31.1 kmh 30.24 in1024.0 mb 0.00 in0.0 mm 0.00 in0.0 mm 0.00 in0.0 mm
03:20 PM 67.8°F19.9°C 53.4°F11.9°C 60% 5.1 mph S8.2 kmh S 10.4 mph16.7 kmh 30.24 in1024.0 mb 0.00 in0.0 mm 0.00 in0.0 mm 0.00 in0.0 mm
03:30 PM 67.8°F19.9°C 53.4°F11.9°C 60% 5.9 mph S9.5 kmh S 11.5 mph18.5 kmh 30.24 in1024.0 mb 0.00 in0.0 mm 0.00 in0.0 mm 0.00 in0.0 mm
03:40 PM 68.0°F20.0°C 53.1°F11.7°C 59% 6.0 mph S9.7 kmh S 12.2 mph19.6 kmh 30.24 in1024.0 mb 0.00 in0.0 mm 0.00 in0.0 mm 0.00 in0.0 mm
03:50 PM 68.4°F20.2°C 53.0°F11.7°C 58% 6.6 mph S10.6 kmh S 20.0 mph32.2 kmh 30.24 in1024.0 mb 0.00 in0.0 mm 0.00 in0.0 mm 0.00 in0.0 mm
04:00 PM 68.7°F20.4°C 53.3°F11.8°C 58% 8.7 mph S14.0 kmh S 20.8 mph33.5 kmh 30.24 in1024.0 mb 0.00 in0.0 mm 0.00 in0.0 mm 0.00 in0.0 mm
04:10 PM 68.7°F20.4°C 52.4°F11.3°C 56% 9.7 mph S15.6 kmh S 17.2 mph27.7 kmh 30.21 in1023.0 mb 0.00 in0.0 mm 0.00 in0.0 mm 0.00 in0.0 mm
04:20 PM 68.4°F20.2°C 52.0°F11.1°C 56% 8.5 mph S13.7 kmh S 14.0 mph22.5 kmh 30.21 in1023.0 mb 0.00 in0.0 mm 0.00 in0.0 mm 0.00 in0.0 mm
04:30 PM 68.0°F20.0°C 51.7°F10.9°C 56% 4.9 mph S7.9 kmh S 11.8 mph19.0 kmh 30.24 in1024.0 mb 0.00 in0.0 mm 0.00 in0.0 mm 0.00 in0.0 mm
04:40 PM 67.8°F19.9°C 52.5°F11.4°C 58% 4.4 mph S7.1 kmh S 8.9 mph14.3 kmh 30.24 in1024.0 mb 0.00 in0.0 mm 0.00 in0.0 mm 0.00 in0.0 mm
04:50 PM 67.6°F19.8°C 52.3°F11.3°C 58% 3.5 mph S5.6 kmh S 12.2 mph19.6 kmh 30.24 in1024.0 mb 0.00 in0.0 mm 0.00 in0.0 mm 0.00 in0.0 mm
05:00 PM 67.5°F19.7°C 52.2°F11.2°C 58% 4.1 mph SSW6.6 kmh SSW 12.2 mph19.6 kmh 30.24 in1024.0 mb 0.00 in0.0 mm 0.00 in0.0 mm 0.00 in0.0 mm
05:10 PM 67.3°F19.6°C 52.5°F11.4°C 59% 5.0 mph S8.0 kmh S 9.3 mph15.0 kmh 30.27 in1025.1 mb 0.00 in0.0 mm 0.00 in0.0 mm 0.00 in0.0 mm
05:20 PM 67.1°F19.5°C 52.3°F11.3°C 59% 2.7 mph S4.3 kmh S 9.3 mph15.0 kmh 30.27 in1025.1 mb 0.00 in0.0 mm 0.00 in0.0 mm 0.00 in0.0 mm
05:30 PM 66.7°F19.3°C 52.4°F11.3°C 60% 4.9 mph S7.9 kmh S 10.0 mph16.1 kmh 30.24 in1024.0 mb 0.00 in0.0 mm 0.00 in0.0 mm 0.00 in0.0 mm
05:40 PM 66.6°F19.2°C 52.2°F11.2°C 60% 4.9 mph S7.9 kmh S 8.9 mph14.3 kmh 30.24 in1024.0 mb 0.00 in0.0 mm 0.00 in0.0 mm 0.00 in0.0 mm
05:50 PM 66.4°F19.1°C 52.1°F11.2°C 60% 6.3 mph S10.1 kmh S 12.5 mph20.1 kmh 30.24 in1024.0 mb 0.00 in0.0 mm 0.00 in0.0 mm 0.00 in0.0 mm
06:00 PM 66.2°F19.0°C 51.9°F11.1°C 60% 6.0 mph S9.7 kmh S 16.8 mph27.0 kmh 30.24 in1024.0 mb 0.00 in0.0 mm 0.00 in0.0 mm 0.00 in0.0 mm
06:10 PM 66.0°F18.9°C 52.2°F11.2°C 61% 5.3 mph S8.5 kmh S 12.2 mph19.6 kmh 30.24 in1024.0 mb 0.00 in0.0 mm 0.00 in0.0 mm 0.00 in0.0 mm
06:20 PM 65.8°F18.8°C 52.5°F11.4°C 62% 4.8 mph S7.7 kmh S 20.8 mph33.5 kmh 30.24 in1024.0 mb 0.00 in0.0 mm 0.00 in0.0 mm 0.00 in0.0 mm
06:30 PM 65.7°F18.7°C 52.7°F11.5°C 63% 4.9 mph S7.9 kmh S 10.4 mph16.7 kmh 30.21 in1023.0 mb 0.00 in0.0 mm 0.00 in0.0 mm 0.00 in0.0 mm
06:40 PM 65.3°F18.5°C 52.4°F11.3°C 63% 5.1 mph S8.2 kmh S 11.5 mph18.5 kmh 30.21 in1023.0 mb 0.00 in0.0 mm 0.00 in0.0 mm 0.00 in0.0 mm
06:50 PM 65.3°F18.5°C 52.8°F11.6°C 64% 6.2 mph S10.0 kmh S 13.6 mph21.9 kmh 30.21 in1023.0 mb 0.00 in0.0 mm 0.00 in0.0 mm 0.00 in0.0 mm
07:00 PM 65.3°F18.5°C 52.8°F11.6°C 64% 6.1 mph S9.8 kmh S 11.5 mph18.5 kmh 30.21 in1023.0 mb 0.00 in0.0 mm 0.00 in0.0 mm 0.00 in0.0 mm
07:10 PM 65.5°F18.6°C 53.0°F11.7°C 64% 5.8 mph S9.3 kmh S 14.0 mph22.5 kmh 30.21 in1023.0 mb 0.00 in0.0 mm 0.00 in0.0 mm 0.00 in0.0 mm
07:20 PM 65.5°F18.6°C 53.0°F11.7°C 64% 5.6 mph S9.0 kmh S 11.5 mph18.5 kmh 30.21 in1023.0 mb 0.00 in0.0 mm 0.00 in0.0 mm 0.00 in0.0 mm
07:30 PM 65.5°F18.6°C 53.4°F11.9°C 65% 5.8 mph S9.3 kmh S 10.4 mph16.7 kmh 30.21 in1023.0 mb 0.00 in0.0 mm 0.00 in0.0 mm 0.00 in0.0 mm
07:40 PM 65.5°F18.6°C 53.8°F12.1°C 66% 6.4 mph S10.3 kmh S 15.7 mph25.3 kmh 30.21 in1023.0 mb 0.00 in0.0 mm 0.00 in0.0 mm 0.00 in0.0 mm
07:50 PM 65.3°F18.5°C 53.6°F12.0°C 66% 5.9 mph S9.5 kmh S 12.5 mph20.1 kmh 30.21 in1023.0 mb 0.00 in0.0 mm 0.00 in0.0 mm 0.00 in0.0 mm
08:00 PM 65.3°F18.5°C 54.5°F12.5°C 68% 6.2 mph S10.0 kmh S 12.2 mph19.6 kmh 30.24 in1024.0 mb 0.00 in0.0 mm 0.00 in0.0 mm 0.00 in0.0 mm
08:10 PM 65.3°F18.5°C 55.3°F12.9°C 70% 6.1 mph S9.8 kmh S 11.5 mph18.5 kmh 30.24 in1024.0 mb 0.00 in0.0 mm 0.00 in0.0 mm 0.00 in0.0 mm
08:20 PM 65.3°F18.5°C 55.7°F13.2°C 71% 6.5 mph S10.5 kmh S 12.5 mph20.1 kmh 30.24 in1024.0 mb 0.00 in0.0 mm 0.00 in0.0 mm 0.00 in0.0 mm
08:30 PM 65.1°F18.4°C 56.2°F13.4°C 73% 6.3 mph S10.1 kmh S 13.6 mph21.9 kmh 30.24 in1024.0 mb 0.00 in0.0 mm 0.00 in0.0 mm 0.00 in0.0 mm
08:40 PM 64.9°F18.3°C 56.5°F13.6°C 74% 4.6 mph S7.4 kmh S 11.8 mph19.0 kmh 30.24 in1024.0 mb 0.00 in0.0 mm 0.00 in0.0 mm 0.00 in0.0 mm
08:50 PM 64.8°F18.2°C 56.6°F13.7°C 75% 4.0 mph SW6.4 kmh SW 13.6 mph21.9 kmh 30.24 in1024.0 mb 0.00 in0.0 mm 0.00 in0.0 mm 0.00 in0.0 mm
09:00 PM 64.4°F18.0°C 56.7°F13.7°C 76% 3.8 mph SSW6.1 kmh SSW 12.5 mph20.1 kmh 30.24 in1024.0 mb 0.00 in0.0 mm 0.00 in0.0 mm 0.00 in0.0 mm
09:10 PM 64.0°F17.8°C 56.3°F13.5°C 76% 3.6 mph SW5.8 kmh SW 9.3 mph15.0 kmh 30.24 in1024.0 mb 0.00 in0.0 mm 0.00 in0.0 mm 0.00 in0.0 mm
09:20 PM 63.7°F17.6°C 56.0°F13.3°C 76% 2.9 mph SW4.7 kmh SW 14.0 mph22.5 kmh 30.24 in1024.0 mb 0.00 in0.0 mm 0.00 in0.0 mm 0.00 in0.0 mm
09:30 PM 63.3°F17.4°C 56.0°F13.3°C 77% 3.2 mph SSW5.1 kmh SSW 7.5 mph12.1 kmh 30.24 in1024.0 mb 0.00 in0.0 mm 0.00 in0.0 mm 0.00 in0.0 mm
09:40 PM 63.1°F17.3°C 55.8°F13.2°C 77% 1.5 mph WSW2.4 kmh WSW 6.8 mph10.9 kmh 30.24 in1024.0 mb 0.00 in0.0 mm 0.00 in0.0 mm 0.00 in0.0 mm
09:50 PM 62.8°F17.1°C 55.8°F13.2°C 78% 1.3 mph W2.1 kmh W 6.4 mph10.3 kmh 30.24 in1024.0 mb 0.00 in0.0 mm 0.00 in0.0 mm 0.00 in0.0 mm
10:00 PM 62.4°F16.9°C 55.8°F13.2°C 79% Calm Calm -- 30.21 in1023.0 mb 0.00 in0.0 mm 0.00 in0.0 mm 0.00 in0.0 mm
10:10 PM 62.1°F16.7°C 55.5°F13.1°C 79% Calm Calm -- 30.24 in1024.0 mb 0.00 in0.0 mm 0.00 in0.0 mm 0.00 in0.0 mm
10:20 PM 61.7°F16.5°C 55.5°F13.1°C 80% 0.1 mph S0.2 kmh S 2.5 mph4.0 kmh 30.24 in1024.0 mb 0.00 in0.0 mm 0.00 in0.0 mm 0.00 in0.0 mm
10:30 PM 61.3°F16.3°C 55.5°F13.1°C 81% 0.1 mph S0.2 kmh S 1.8 mph2.9 kmh 30.24 in1024.0 mb 0.00 in0.0 mm 0.00 in0.0 mm 0.00 in0.0 mm
10:40 PM 61.2°F16.2°C 55.3°F12.9°C 81% 0.1 mph SW0.2 kmh SW 1.8 mph2.9 kmh 30.24 in1024.0 mb 0.00 in0.0 mm 0.00 in0.0 mm 0.00 in0.0 mm
10:50 PM 61.0°F16.1°C 55.4°F13.0°C 82% Calm Calm -- 30.24 in1024.0 mb 0.00 in0.0 mm 0.00 in0.0 mm 0.00 in0.0 mm
11:00 PM 60.8°F16.0°C 55.6°F13.1°C 83% Calm Calm -- 30.21 in1023.0 mb 0.00 in0.0 mm 0.00 in0.0 mm 0.00 in0.0 mm
11:10 PM 60.6°F15.9°C 55.8°F13.2°C 84% 0.3 mph S0.5 kmh S 3.9 mph6.3 kmh 30.24 in1024.0 mb 0.00 in0.0 mm 0.00 in0.0 mm 0.00 in0.0 mm
11:20 PM 60.4°F15.8°C 55.6°F13.1°C 84% Calm Calm 1.4 mph2.3 kmh 30.24 in1024.0 mb 0.05 in1.3 mm 0.30 in7.6 mm 0.05 in1.3 mm
11:30 PM 60.3°F15.7°C 55.7°F13.2°C 85% Calm Calm -- 30.24 in1024.0 mb 0.05 in1.3 mm 0.00 in0.0 mm 0.05 in1.3 mm
11:40 PM 60.1°F15.6°C 55.6°F13.1°C 85% 0.2 mph SE0.3 kmh SE 3.9 mph6.3 kmh 30.24 in1024.0 mb 0.05 in1.3 mm 0.00 in0.0 mm 0.05 in1.3 mm
11:50 PM 59.7°F15.4°C 55.5°F13.1°C 86% 1.2 mph S1.9 kmh S 6.4 mph10.3 kmh 30.24 in1024.0 mb 0.05 in1.3 mm 0.00 in0.0 mm 0.05 in1.3 mm